Weather History for KALM - April, 2013

Change the Weather History Date:

Monday, April 8, 2013

  Actual Average Record
Temperature  
Mean Temperature 68 °F -  
Max Temperature 80 °F 76 °F 89 °F (1960)
Min Temperature 55 °F 43 °F 28 °F (1973)
Cooling Degree Days 2    
Growing Degree Days 18 (Base 50)    
Moisture  
Dew Point 21 °F    
Average Humidity 17    
Maximum Humidity 26    
Minimum Humidity 9    
Precipitation  
Precipitation 0.00 in - - ()
Sea Level Pressure  
Sea Level Pressure 29.68 in    
Wind  
Wind Speed 11 mph (South)    
Max Wind Speed 28 mph    
Max Gust Speed 40 mph    
Visibility 9 miles    
Events      
Averages and records for this station are not official NWS values.
T = Trace of Precipitation, MM = Missing Value Source: NWS Daily Summary

Daily Weather History Graph

Daily Weather History Graph

Search for Another Location

Airport or City:

Trip Planner

Search our weather history database for the weather conditions in past years. The results will help you decide how hot, cold, wet, or windy it might be!

Date:

Astronomy

Apr. 08, 2013 Rise Set
Actual Time 6:42 AM MDT 7:29 PM MDT
Civil Twilight 6:17 AM MDT 7:54 PM MDT
Nautical Twilight 5:47 AM MDT 8:24 PM MDT
Astronomical Twilight 5:17 AM MDT 8:54 PM MDT
Moon 5:29 AM MDT (4/8) 6:09 PM MDT (4/8)
Length of Visible Light 13h 36m
Length of Day
12h 46m
Waning Crescent, 3% of the Moon is Illuminated
Apr 8
Waning Crescent
Apr 10
New
Apr 18
First Quarter
Apr 25
Full
May 2
Last Quarter

Hourly Weather History & Observations

Time (MDT) Temp. Dew Point Humidity Pressure Visibility Wind Dir Wind Speed Gust Speed Precip Events Conditions
12:15 AM 62.6 °F 17.6 °F 18% 29.82 in 10.0 mi ESE 4.6 mph - N/A   Clear
12:35 AM 59.0 °F 17.6 °F 20% 29.81 in 10.0 mi SSE 5.8 mph - N/A   Clear
12:55 AM 64.4 °F 19.4 °F 18% 29.81 in 10.0 mi SSW 4.6 mph - N/A   Clear
1:15 AM 59.0 °F 19.4 °F 22% 29.81 in 10.0 mi SSE 4.6 mph - N/A   Clear
1:35 AM 64.4 °F 19.4 °F 18% 29.80 in 10.0 mi SSE 3.5 mph - N/A   Clear
1:55 AM 57.2 °F 17.6 °F 21% 29.79 in 10.0 mi SE 4.6 mph - N/A   Clear
2:15 AM 57.2 °F 17.6 °F 21% 29.79 in 10.0 mi SE 9.2 mph - N/A   Clear
2:35 AM 57.2 °F 17.6 °F 21% 29.78 in 10.0 mi SE 6.9 mph - N/A   Clear
2:55 AM 57.2 °F 19.4 °F 23% 29.78 in 10.0 mi SE 9.2 mph - N/A   Clear
3:15 AM 59.0 °F 19.4 °F 22% 29.78 in 10.0 mi SE 6.9 mph - N/A   Clear
3:35 AM 57.2 °F 21.2 °F 25% 29.78 in 10.0 mi SSE 5.8 mph - N/A   Clear
3:55 AM 62.6 °F 23.0 °F 22% 29.77 in 10.0 mi SSE 5.8 mph - N/A   Clear
4:15 AM 55.4 °F 21.2 °F 26% 29.77 in 10.0 mi ESE 5.8 mph - N/A   Clear
4:35 AM 55.4 °F 21.2 °F 26% 29.78 in 10.0 mi South 5.8 mph - N/A   Clear
4:55 AM 57.2 °F 19.4 °F 23% 29.78 in 10.0 mi South 12.7 mph - N/A   Clear
5:15 AM 57.2 °F 19.4 °F 23% 29.78 in 10.0 mi SSE 13.8 mph - N/A   Clear
5:35 AM 57.2 °F 19.4 °F 23% 29.79 in 10.0 mi SSE 10.4 mph - N/A   Clear
5:55 AM 57.2 °F 19.4 °F 23% 29.79 in 10.0 mi SSE 9.2 mph - N/A   Clear
6:15 AM 55.4 °F 19.4 °F 25% 29.78 in 10.0 mi SSE 9.2 mph - N/A   Clear
6:35 AM 57.2 °F 19.4 °F 23% 29.79 in 10.0 mi SSE 9.2 mph - N/A   Clear
6:55 AM 57.2 °F 21.2 °F 25% 29.79 in 10.0 mi SSE 8.1 mph - N/A   Clear
7:15 AM 55.4 °F 21.2 °F 26% 29.79 in 10.0 mi SSE 8.1 mph - N/A   Clear
7:35 AM 59.0 °F 23.0 °F 25% 29.80 in 10.0 mi SE 9.2 mph - N/A   Clear
7:55 AM 62.6 °F 23.0 °F 22% 29.80 in 10.0 mi SSE 10.4 mph - N/A   Clear
8:15 AM 64.4 °F 24.8 °F 22% 29.80 in 10.0 mi South 12.7 mph - N/A   Clear
8:35 AM 68.0 °F 24.8 °F 20% 29.80 in 10.0 mi South 15.0 mph - N/A   Clear
8:55 AM 68.0 °F 24.8 °F 20% 29.80 in 10.0 mi South 11.5 mph - N/A   Clear
9:15 AM 68.0 °F 26.6 °F 21% 29.80 in 10.0 mi South 8.1 mph - N/A   Clear
9:35 AM 69.8 °F 26.6 °F 20% 29.79 in 10.0 mi SSW 11.5 mph - N/A   Clear
9:55 AM 71.6 °F 26.6 °F 19% 29.79 in 10.0 mi SW 12.7 mph 18.4 mph N/A   Clear
10:15 AM 71.6 °F 26.6 °F 19% 29.78 in 10.0 mi SW 18.4 mph 23.0 mph N/A   Clear
10:35 AM 73.4 °F 26.6 °F 18% 29.78 in 9.0 mi SW 20.7 mph 27.6 mph N/A   Clear
10:55 AM 73.4 °F 24.8 °F 16% 29.77 in 10.0 mi SW 19.6 mph 31.1 mph N/A   Clear
11:15 AM 73.4 °F 24.8 °F 16% 29.76 in 10.0 mi SW 20.7 mph 32.2 mph N/A   Clear
11:35 AM 73.4 °F 24.8 °F 16% 29.75 in 10.0 mi SW 16.1 mph 27.6 mph N/A   Clear
11:55 AM 75.2 °F 28.4 °F 18% 29.74 in 10.0 mi SSW 15.0 mph 23.0 mph N/A   Clear
12:15 PM 75.2 °F 26.6 °F 17% 29.72 in 10.0 mi SSW 25.3 mph 31.1 mph N/A   Clear
12:35 PM 75.2 °F 24.8 °F 15% 29.71 in 10.0 mi SSW 17.3 mph 29.9 mph N/A   Clear
12:55 PM 77.0 °F 23.0 °F 13% 29.70 in 10.0 mi SSW 21.9 mph 26.5 mph N/A   Clear
1:15 PM 77.0 °F 23.0 °F 13% 29.68 in 10.0 mi SW 19.6 mph 26.5 mph N/A   Clear
1:35 PM 77.0 °F 23.0 °F 13% 29.67 in 10.0 mi South 23.0 mph 29.9 mph N/A   Clear
1:55 PM 77.0 °F 23.0 °F 13% 29.66 in 10.0 mi South 15.0 mph 27.6 mph N/A   Clear
2:15 PM 78.8 °F 23.0 °F 13% 29.65 in 8.0 mi SSW 20.7 mph 35.7 mph N/A   Clear
2:35 PM 78.8 °F 21.2 °F 12% 29.64 in 9.0 mi South 24.2 mph 35.7 mph N/A   Clear
2:38 PM - - N/A% - - North - - N/A   Unknown
2:55 PM 78.8 °F 19.4 °F 11% 29.63 in 10.0 mi South 18.4 mph 35.7 mph N/A   Clear
3:15 PM 80.6 °F 19.4 °F 10% 29.62 in 10.0 mi SSW 23.0 mph 31.1 mph N/A   Clear
3:35 PM 80.6 °F 19.4 °F 10% 29.60 in 10.0 mi South 19.6 mph 29.9 mph N/A   Clear
3:55 PM 80.6 °F 19.4 °F 10% 29.59 in 10.0 mi SSW 17.3 mph 32.2 mph N/A   Clear
4:15 PM 80.6 °F 19.4 °F 10% 29.57 in 10.0 mi South 27.6 mph 40.3 mph N/A   Clear
4:35 PM 80.6 °F 21.2 °F 11% 29.55 in 10.0 mi South 20.7 mph 27.6 mph N/A   Clear
4:55 PM 80.6 °F 21.2 °F 11% 29.54 in 10.0 mi South 16.1 mph 25.3 mph N/A   Clear
5:15 PM 80.6 °F 15.8 °F 9% 29.53 in 5.0 mi SW 25.3 mph 36.8 mph N/A   Haze
5:35 PM 80.6 °F 15.8 °F 9% 29.53 in 5.0 mi SW 19.6 mph 33.4 mph N/A   Haze
5:55 PM 80.6 °F 17.6 °F 10% 29.53 in 5.0 mi SW 23.0 mph 34.5 mph N/A   Haze
6:15 PM 78.8 °F 17.6 °F 10% 29.52 in 5.0 mi SW 21.9 mph 33.4 mph N/A   Haze
6:35 PM 77.0 °F 17.6 °F 11% 29.52 in 5.0 mi SSW 18.4 mph 27.6 mph N/A   Haze
6:55 PM 77.0 °F 17.6 °F 11% 29.52 in 4.0 mi SW 19.6 mph 27.6 mph N/A   Haze
7:15 PM 77.0 °F 15.8 °F 10% 29.52 in 6.0 mi SSW 18.4 mph 26.5 mph N/A   Haze
7:35 PM 75.2 °F 15.8 °F 11% 29.53 in 5.0 mi SSW 19.6 mph 27.6 mph N/A   Haze
7:55 PM 73.4 °F 15.8 °F 11% 29.53 in 5.0 mi South 15.0 mph 20.7 mph N/A   Haze
8:15 PM 73.4 °F 15.8 °F 11% 29.53 in 5.0 mi South 18.4 mph 23.0 mph N/A   Haze
8:35 PM 71.6 °F 15.8 °F 12% 29.54 in 5.0 mi South 17.3 mph - N/A   Haze
8:55 PM 71.6 °F 17.6 °F 13% 29.54 in 6.0 mi SSW 16.1 mph 24.2 mph N/A   Haze
9:15 PM 71.6 °F 19.4 °F 14% 29.55 in 7.0 mi SW 19.6 mph 26.5 mph N/A   Clear
9:35 PM 69.8 °F 19.4 °F 15% 29.55 in 7.0 mi South 13.8 mph - N/A   Clear
9:55 PM 68.0 °F 17.6 °F 15% 29.55 in 7.0 mi South 17.3 mph 21.9 mph N/A   Clear
10:15 PM 68.0 °F 17.6 °F 15% 29.55 in 8.0 mi SSE 16.1 mph 20.7 mph N/A   Clear
10:35 PM 68.0 °F 17.6 °F 15% 29.55 in 8.0 mi South 11.5 mph 20.7 mph N/A   Clear
10:55 PM 68.0 °F 19.4 °F 16% 29.55 in 8.0 mi SSE 16.1 mph 21.9 mph N/A   Clear
11:15 PM 68.0 °F 21.2 °F 17% 29.55 in 7.0 mi SSE 12.7 mph 18.4 mph N/A   Clear
11:35 PM 66.2 °F 23.0 °F 19% 29.56 in 7.0 mi South 10.4 mph - N/A   Clear
11:55 PM 66.2 °F 23.0 °F 19% 29.55 in 6.0 mi SSE 15.0 mph - N/A   Haze